Regional Weather Roundup
Issued by NWS

Home | Current Version | Previous Version | Graphics & Text | Print | Product List | Glossary On
Versions: 1 2 3 4 5 6 7 8 9 10 11 12 13 14 15 16 17 18 19 20 21 22 23 24 25 26 27 28 29 30 31 32 33 34 35 36 37 38 39 40 41 42 43 44 45 46 47 48 49 50
000
ASUS43 KBIS 220031
RWRND
NORTH DAKOTA REGIONAL WEATHER ROUNDUP
NATIONAL WEATHER SERVICE EASTERN NORTH DAKOTA/GRAND FORKS ND
700 PM CDT SAT APR 21 2018

  NOTE: "FAIR" INDICATES FEW OR NO CLOUDS BELOW 12,000 FEET WITH NO
  SIGNIFICANT WEATHER AND/OR OBSTRUCTIONS TO VISIBILITY.

NDZ001>003-009>011-017-220100-
...NORTHWEST NORTH DAKOTA...

CITY           SKY/WX    TMP DP  RH WIND       PRES   REMARKS
WILLISTON      FAIR      68  37  32 S17G28    29.95F
6HR MIN TEMP:  62; 6HR MAX TEMP:  69;

MINOT          FAIR      63  37  38 S24G31    30.05F
MINOT AFB      FAIR      62  39  43 S24G33    30.04F
6HR MIN TEMP:  57; 6HR MAX TEMP:  64;

$$

NDZ018>021-031>035-040>046-220100-
...SOUTHWEST NORTH DAKOTA...

CITY           SKY/WX    TMP DP  RH WIND       PRES   REMARKS
BISMARCK       FAIR      59  34  39 S23G31    30.15S
DICKINSON      FAIR      58  36  43 S23G30    30.04F
GARRISON         N/A     55  36  48 S21       30.08F
HETTINGER      FAIR      54  35  48 S20       30.10F
$$

NDZ004>008-012>016-024-026-027-054-220100-
...NORTHEAST NORTH DAKOTA...

CITY           SKY/WX    TMP DP  RH WIND       PRES   REMARKS
GRAND FORKS    FAIR      57  45  64 S8        30.24F
GRAND FORKS AF FAIR      58  45  63 S12       30.24F
DEVILS LAKE    FAIR      58  38  47 S18       30.20S
$$

NDZ022-023-025-028>030-036>039-047>053-220100-
...SOUTHEAST NORTH DAKOTA...

CITY           SKY/WX    TMP DP  RH WIND       PRES   REMARKS
JAMESTOWN      FAIR      58  35  42 S14       30.21F
FARGO          FAIR      59  39  47 S10       30.25F
WAHPETON       FAIR      55  37  50 S10       30.28S
$$




USA.gov is the U.S. government's official web portal to all federal, state and local government web resources and services.